User: anonymous   Login
Location: Hoyos del Collado
(40.3594°N, 5.2003°W)
Time: 04:06:16
(UTC+00:00)
Language:

Cosmos 2151 Rocket - Orbit

View from above orbital plane
View from above orbital plane
View from above satellite
View from above satellite

Ground track
Ground track

The orbit data is extracted from the following two-line orbital elements,

1 21423U 91042B   24164.89981450  .00000725  00000-0  90813-4 0  9998
2 21423  82.4936  95.0660 0017726 160.9412 199.2469 14.80790204759093
Epoch (UTC): 12 June 2024 21:35:43
Eccentricity: 0.0017726
inclination: 82.4936°
perigee height: 614 km
apogee height: 639 km
right ascension of ascending node: 95.0660°
argument of perigee: 160.9412°
revolutions per day: 14.80790204
mean anomaly at epoch: 199.2469°
orbit number at epoch: 75909

The dashed part of the orbit path shows where the satellite is in the earth's shadow,  

DLR